GFSNIL_prec_radar_138.txt.gz
Reflectivity
-20 -20 -15 41 38 19 -9 3 -20 -20 -20 -20 0 -15 8 -15 -6 -20 -20 -20 -20 -20
-20 -20 -20 14 29 25 -17 21 8 -17 -20 -8 6 0 28 -6 21 -20 -20 -20 -20 -20
-3 -14 -20 20 36 41 33 31 13 -5 -15 0 3 16 9 -20 -8 -17 -20 -20 -20 -20
13 23 -20 32 45 43 37 -1 10 -18 20 38 32 49 25 8 -0 16 -20 -20 13 -20
28 20 11 21 44 26 33 28 19 -9 1 33 20 31 20 29 23 18 6 7 15 13
23 4 15 43 37 29 26 41 34 -5 6 30 38 12 11 14 12 -13 -7 -6 -14 -20
30 26 42 43 38 33 31 46 31 14 13 34 31 27 11 -9 -20 -20 -20 -20 -20 -20
23 33 32 35 35 31 29 40 41 33 20 28 7 1 -1 -14 -20 -20 -20 -20 -20 -20
35 30 31 32 27 21 30 37 38 38 33 32 17 -4 -12 -20 -20 -20 -20 -20 -20 -20
27 30 30 26 30 33 39 38 33 26 14 10 8 -16 -20 -20 -20 -20 -20 -20 -20 -20
9 17 15 11 10 11 18 13 21 19 20 23 0 -20 -20 -20 -20 -20 -20 -20 -20 -20
-16 1 8 4 16 16 -12 -16 -2 7 -10 -19 -20 -18 3 -17 -20 -20 -20 -20 -20 -19
-2 -0 10 9 2 3 -6 -0 -12 -14 -9 -1 -19 -16 -18 1 -20 -20 -20 -20 -20 4
-5 -4 2 -4 -10 -13 -20 -20 -17 -7 -20 -1 -12 -17 -1 -7 -20 -20 -20 -20 -20 -20

GFSNIL_prec_radar_141.txt.gz
Reflectivity
-20 -20 -20 -20 -20 -20 -20 -19 26 35 40 27 -10 -15 -20 -20 -20 -20 -20 -20 -20 -20
0 -4 -20 -20 -20 -20 -20 -20 11 38 49 32 6 -3 9 -20 -20 -20 -20 -20 -20 -20
3 11 -10 -20 -20 -20 -20 -20 4 44 47 31 13 -1 6 5 -15 -16 -16 -20 -20 -20
25 30 21 -20 -20 -20 -20 -20 -13 24 49 33 10 29 18 15 -20 -20 23 -20 -20 -20
37 34 28 -7 0 -20 -20 -20 12 28 45 46 31 26 12 19 24 20 17 15 -9 -20
34 21 22 17 -16 -20 -20 -0 12 42 48 36 14 24 20 -3 -8 45 31 34 15 17
39 28 23 25 9 -16 -8 4 25 40 44 45 29 12 16 -16 27 28 37 27 19 16
37 40 33 19 34 -6 1 12 23 30 43 42 39 25 -20 -1 19 26 30 31 16 2
32 28 33 18 -10 1 16 35 35 41 40 44 44 33 30 15 25 19 26 18 13 -0
19 20 16 14 22 22 31 39 40 40 39 40 40 42 41 32 31 29 24 7 -15 -14
-7 5 -9 -2 2 14 17 25 24 35 32 29 33 34 33 34 27 19 22 4 -4 -9
-20 -19 -17 -10 -4 -13 -13 5 15 15 21 26 18 29 26 29 26 14 8 1 -7 1
-3 -3 -20 -20 -20 1 8 -10 -3 -1 13 12 9 6 1 -2 1 -6 -12 -20 -1 -5
-20 8 -20 -20 -20 -20 -15 -9 -2 -4 -10 -5 -20 -17 2 -6 -6 2 -8 -20 -20 -20

GFSNIL_prec_radar_144.txt.gz
Reflectivity
-4 -20 -20 -20 -8 12 12 -7 -20 -20 -20 -18 6 39 42 26 12 32 -13 -20 -20 -20
-20 -20 -20 -20 -20 -17 8 -18 -20 -20 -20 -20 -20 7 46 49 34 9 -7 -17 -20 -20
-17 -18 -11 -17 -19 -11 19 -20 -20 -20 -20 -20 -20 5 37 50 38 16 33 7 -20 7
13 -8 -8 8 12 10 14 -14 -20 -20 -20 -20 -20 -6 18 42 38 22 26 -10 -20 3
-0 17 20 23 25 27 24 16 -2 -20 -20 -20 -20 -6 20 19 32 28 12 32 -10 11
12 24 33 21 39 32 34 34 26 7 -20 -20 -20 -5 19 32 51 26 21 -8 28 -13
22 33 37 35 39 41 36 35 30 -16 -20 -20 -20 -2 4 18 37 44 16 27 22 25
8 34 27 32 33 39 38 26 17 18 -15 -20 -4 7 13 37 46 46 28 27 8 13
-12 16 20 20 24 21 30 29 27 19 18 12 -2 18 33 35 42 42 38 20 -2 -20
-19 3 18 17 16 21 12 16 23 25 21 17 15 36 42 40 44 41 45 39 8 -12
-12 -20 -14 -2 8 14 4 20 20 17 13 2 6 16 28 37 38 34 44 39 28 5
6 -20 -20 -10 -1 6 13 5 4 1 -13 -6 10 22 30 28 30 37 41 39 36 34
-18 -20 -20 -20 -20 -20 -20 -20 -1 -7 3 9 7 12 19 24 24 27 29 32 29 26
-20 7 -20 -20 -20 -20 -20 -20 -20 -20 -13 -20 -18 -4 6 7 6 14 16 17 14 24

GFSNIL_prec_radar_150.txt.gz
Reflectivity
-20 1 -2 -4 7 7 3 -10 1 6 -19 -18 -17 -20 -20 -1 8 -20 -20 -8 10 13
-20 -3 0 -0 -16 -9 7 9 -12 -20 -8 -18 -20 -20 -20 -20 3 11 -20 -20 -17 9
-20 -20 -20 -20 -20 -5 7 9 2 -12 -20 -20 -20 -20 -20 -20 -20 9 -8 8 -20 6
-20 -20 -20 -20 -20 -15 -3 -8 -15 -20 -20 5 -12 -20 -20 -20 -20 -20 12 -0 -20 -18
-18 -20 -20 -20 1 1 -20 -20 -16 -14 -20 -12 -2 -20 -20 -20 -20 -17 12 0 3 -20
-20 -20 -20 -11 -2 -6 -20 -20 -20 -20 -20 -15 -9 -9 -19 -16 -13 -6 -15 13 -4 4
-20 -20 -20 -20 -20 -18 -20 -20 -20 -20 -20 -16 -2 0 -1 17 9 21 23 14 5 17
-20 -20 -20 -20 -20 -20 -20 -20 -20 -20 -20 -1 5 18 23 13 12 26 28 31 24 16
-20 -20 -20 -20 -20 -19 -9 -20 -20 -6 -14 2 16 17 25 23 28 16 23 25 36 19
-16 -20 -20 -20 -20 -20 -17 -6 -20 -20 -1 -11 8 21 22 28 27 20 22 23 15 26
-20 -20 -20 -20 -20 -20 -20 -20 -20 -20 -20 9 2 9 20 22 22 29 25 22 24 24
-20 -20 -20 -20 -20 -20 -20 -20 -20 -20 -20 -16 2 7 10 12 21 13 26 29 27 25
-8 -20 -20 -20 -20 -20 -20 -20 -20 -20 -20 -6 -1 1 9 13 5 15 16 16 21 23
-20 -13 -20 -20 -20 -20 -20 -20 -20 -20 -20 -20 -1 -6 -1 11 6 12 16 9 15 18

GFSNIL_prec_radar_153.txt.gz
Reflectivity
-20 -20 -15 -18 0 5 1 1 -15 -2 1 -18 0 -5 -1 -2 0 2 0 1 20 20
-20 -20 -11 -18 -4 4 -8 1 -4 -20 -19 2 2 -3 -18 -20 -20 -20 -9 10 11 20
-20 -20 -14 -8 -6 -20 -12 -0 -2 -2 -16 -20 3 4 -3 -20 -20 -20 -20 -8 17 22
-20 -20 -20 -17 -15 -4 -11 -9 -3 -8 0 4 -4 -9 -20 -20 -7 -14 -9 -5 8 4
-20 -20 -20 -20 -20 -5 -7 -6 -6 -3 -5 -2 -2 5 4 -19 -20 -16 -20 -20 -20 7
-20 -20 -20 -20 -20 -20 -20 -20 -17 -16 -1 -3 4 5 -7 -11 -6 12 -4 -16 -20 -17
-20 -20 -20 -20 -20 -19 -13 -14 -10 4 -2 -1 7 6 4 0 -14 3 -0 -20 -17 -19
-20 -20 -20 -20 -20 -20 -20 -12 -3 -3 -9 -16 5 8 6 -7 -12 -6 12 15 -3 -4
-20 -20 -20 -20 -20 -20 -20 -20 -20 -1 -20 -19 7 -19 -2 4 -7 2 10 18 17 9
-20 -20 -20 -20 -20 -20 -20 -20 -20 -12 -5 -20 5 -8 -20 -13 10 3 -5 13 20 18
-20 -20 -20 -20 -20 -20 -20 -20 -20 -20 -20 -13 3 -7 -20 -10 -14 0 16 10 18 24
-20 -20 -20 -20 -20 -20 -20 -20 -20 -20 -20 -20 -20 -12 -8 -17 -12 -14 -10 12 7 12
-20 -20 -20 -20 -20 -20 -20 -20 -20 -20 -20 -20 -20 -20 -3 -11 -20 -13 -20 -7 7 5
-20 -20 -20 -20 -20 -20 -20 -20 -20 -20 -20 -20 -20 -20 -20 -6 -9 -20 -20 -15 4 12